Skip Page Navigation
NASA JPL Caltech
NASA Logo - Jet Propulsion Laboratory + View the NASA Portal
+ Center for Near-Earth Object Studies
JPL Home Earth Solar System Stars & Galaxies Technology
JPL Solar System Dynamics
BODIES ORBITS EPHEMERIDES TOOLS PHYSICAL DATA DISCOVERY FAQ SITE MAP
IMPORTANT: The SSD Announcement email list is now available. Major changes are coming in the near future, including possible hostname and/or URL changes. To be notified of such changes, subscribe to this email list.

Please visit this page for more details.


JPL Small-Body Database Browser
Search: [ help ]  
108626 (2001 MN28)
Classification: Main-belt Asteroid          SPK-ID: 2108626
Ephemeris | Orbit Diagram | Orbital Elements | Mission Design | Physical Parameters | Discovery Circumstances | Close-Approach Data ]

[ show orbit diagram ]
Orbital Elements at Epoch 2459000.5 (2020-May-31.0) TDB
Reference: JPL 18 (heliocentric ecliptic J2000)
 Element Value Uncertainty (1-sigma)   Units 
e .2056063677034329 4.5965e-08  
a 2.631056230518557 1.6698e-08 au
q 2.09009431573815 1.1866e-07 au
i 1.285107970020581 4.6877e-06 deg
node 247.0008902710565 0.00025894 deg
peri 14.37001350395804 0.00025933 deg
M 175.3443377118599 1.7097e-05 deg
tp 2458241.253380497685
(2018-May-02.75338050)
7.0035e-05 TDB
period 1558.811573773142
4.27
1.4839e-05
4.063e-08
d
yr
n .2309451674961658 2.1985e-09 deg/d
Q 3.172018145298964 2.0131e-08 au
  Orbit Determination Parameters
   # obs. used (total)      328  
   data-arc span      7230 days (19.79 yr)  
   first obs. used      2000-02-02  
   last obs. used      2019-11-19  
   planetary ephem.      DE431  
   SB-pert. ephem.      SB431-N16  
   condition code      0  
   norm. resid. RMS      .57033  
   source      ORB  
   producer      Otto Matic  
   solution date      2019-Dec-14 09:01:55  

Additional Information
 Earth MOID = 1.07465 au 
 Jupiter MOID = 1.90409 au 
 T_jup = 3.369 
[ show covariance matrix ]

Ephemeris | Orbit Diagram | Orbital Elements | Mission Design | Physical Parameters | Discovery Circumstances | Close-Approach Data ]

Physical Parameter Table
Parameter Symbol Value Units Sigma Reference Notes
absolute magnitude H 16.3   n/a MPO453544  

108626 (2001 MN28)          Discovered 2001-Jun-26 by NEAT at Palomar
Reference: 20051019/Numbers.arcLast Updated: 2005-10-26

[ show close-approach data ]
Ephemeris | Orbit Diagram | Orbital Elements | Mission Design | Physical Parameters | Discovery Circumstances | Close-Approach Data ]
ABOUT SSD CREDITS/AWARDS PRIVACY/COPYRIGHT GLOSSARY LINKS
FirstGov 2020-Feb-26 04:29 UT
(server date/time)  
NASA Home Page
Site Manager:   Ryan S. Park
Webmaster  Alan B. Chamberlin